Location: Newark
(26.8229°N, 81.7649°W)
Time: 12:47:19
(UTC+00:00)

N. Korean satellite - Pass Details

Date: 23 January 2020
Orbit: 456 x 505 km, 97.2° (Epoch: 24 February)

Event Time Altitude Azimuth Distance (km) Brightness Sun altitude
Rises 11:21:42 0° 3° (N) 2,536 10.1 -12.3°
Reaches altitude 10° 11:23:48 10° 358° (N) 1,662 9.1 -11.9°
Maximum altitude 11:27:15 49° 283° (WNW) 639 6.7 -11.1°
Drops below altitude 10° 11:30:45 10° 208° (SSW) 1,680 9.2 -10.4°
Sets 11:32:52 0° 203° (SSW) 2,566 10.2 -9.9°
